User: anonymous   Login
Location: Unspecified
(0.0000°N, 0.0000°E)
Time: 01:05:53
(UTC+00:00)
Language:

STARLINK-34085 - Orbit

View from above orbital plane
View from above orbital plane
View from above satellite
View from above satellite

Ground track
Ground track

The orbit is defined by the following mean orbital elements,

1 64036U          26145.35666170 +.00000000 +00000-0 +17488-3 0 00005
2 64036  70.0009 281.2430 0003049 268.9477  91.1333 14.98338062    00
Epoch (UTC): 25 May 2026 08:33:35
Eccentricity: 0.0003049
inclination: 70.0009°
perigee height: 570 km
apogee height: 574 km
right ascension of ascending node: 281.2430°
argument of perigee: 268.9477°
revolutions per day: 14.98338062
mean anomaly at epoch: 91.1333°

The dashed part of the orbit path shows where the satellite is in the earth's shadow,  

DLR